STARLINK-30279, 57885

Orbit data source: Space-Track

STARLINK-30279, 57885 is a payload satellite owned by SpaceX/Seattle (US) in LEO that was launched on Sat, 16 Sep 2023 UTC via an FALCON 9 launch vehicle from the Air Force Eastern Test Range (AFETR). Payload-class satellites include a variety of spacecraft equipped with specific instruments for various scientific and technological missions. These include communications satellites like Starlink; space stations such as the ISS; scientific satellites like the Hubble; Earth observation satellites from companies like Planet Labs, Umbra, and HawkEye 360; GPS; miniature CubeSats for education and research; and military/defense satellites.

Loading next visibility...
Identifier
57885, 2023-144X
Orbit
LEO
Country
Flag of USUS
Related business
Manufacturer
SpaceX/Seattle
Mission
Operational Commercial Communications
Bus & Motor
STARLINK V2M, Unknown motor
Mass
730 kg wet, ~700 kg dry
Launch date (UTC)
2023-09-16 (2 years ago)
Launch vehicle
FALCON 9
Launch site
Air Force Eastern Test Range (AFETR)
Object type
Payload
Rocket body
Debris
Shape & HBR
Box + 2 Pan, 17.7 m
Radar Cross Section
33.884 m², Large (>1 m²)

Expand to show TLE details & history
Last TLE update: 1 day ago

TLE from 1 day ago
0 STARLINK-30279
1 57885U 23144X   25348.53144241  .00001573  00000-0  13160-3 0  9993
2 57885  43.0040  29.9443 0000800 251.1059 108.9697 15.02510970124746
Epoch: 2025-12-14T12:45Z
TLE epoch observation values (Epoch: 2025-12-14T12:45:16.624Z)
Latitude
0.00002°
Longitude
115.18203°
Altitude
559.115 km
Speed
7.584 km/s
True Right ascension
01h 59m 46s
True Declination
0° 00' 00"
Sunlit
Object was in full shadow at epoch
Visualization orbit readout
Latitude
Unknown
Longitude
Unknown
Altitude
Unknown
Speed
Unknown
Apparent Right ascension
Unknown
Apparent Declination
Unknown
Sunlit
N/A
Visualization observer readout
Local Sidereal Time
13:18:58
Azimuth
Unknown
Elevation
Unknown
Doppler factor
Unknown
Orbital elements
Apogee altitude
561.635 km
Perigee altitude
560.525 km
Semi-major axis
6,939.217 km
Eccentricity
0.00008
Inclination
43.004°
RAAN
29.9443°
Arg. of periapsis
251.1059°
True anomaly
108.97837°
Mean anomaly
108.9697°
Eccentric anomaly
108.97403°
Mean motion
3.75472 °/min
Orbital period
95.88 mins
BSTAR
0.0001316
Loading maneuver chart data...
Computing Atmospheric mass density...
Loading historical data...
Loading historical data...
Loading historical data...
Loading historical data...
Loading historical data...
Loading historical data...
Loading historical data...

Documentation

Showing up to 5 results
|